Wind_Speed
30 42 48 47 44 41 42 56 77 83 73 79 82 68 64 69 58 53 54 54 53 54 55 47 53 51 55 52 47 45 42 37 31 26 22 17 14 13 12 13 15 17 18 17 19 21 23 22 25 27 30 33 36 39
53 53 51 48 50 61 71 72 89 75 58 72 64 62 61 66 65 59 51 49 49 49 47 45 49 53 54 52 46 44 40 34 30 30 24 21 17 15 15 16 15 17 17 19 20 25 26 29 31 33 36 38 41 43
59 56 56 53 66 62 64 62 58 60 66 63 60 53 62 60 53 45 47 45 45 47 47 48 49 52 54 51 45 43 39 34 31 29 28 24 22 20 20 21 20 23 23 25 26 30 32 35 37 38 41 43 44 45
49 50 52 58 60 62 67 71 67 68 68 66 62 60 59 57 47 44 46 42 46 47 48 44 44 50 52 51 48 43 38 35 33 33 31 27 25 25 24 26 26 27 28 31 32 35 37 40 40 43 44 45 45 45
55 57 61 63 63 64 64 66 64 61 59 58 57 56 55 49 41 41 43 38 41 46 46 41 43 48 50 49 46 43 39 37 35 34 32 30 29 30 29 30 31 32 34 36 38 38 40 44 43 44 45 44 43 43
63 64 62 58 56 56 56 56 55 54 53 52 51 50 48 43 40 39 35 33 36 40 37 40 42 46 46 45 45 43 40 38 36 34 33 33 32 33 34 34 34 35 37 39 42 42 44 46 44 44 43 43 43 45
57 57 55 51 50 49 49 49 49 49 48 48 48 47 46 38 36 34 30 33 31 32 33 33 38 41 42 41 40 39 38 36 36 35 35 35 35 37 37 38 36 38 40 42 43 44 45 43 44 43 44 45 46 47
47 44 43 45 44 43 43 44 43 43 43 44 43 42 43 42 35 32 32 34 38 36 31 30 36 39 40 39 38 36 36 37 37 38 38 39 39 40 42 39 39 40 42 42 43 42 44 44 44 45 46 47 49 49
36 37 36 36 36 38 37 38 39 36 35 38 38 41 40 41 35 34 36 17 31 36 34 30 30 33 37 38 37 37 38 38 40 40 42 41 40 42 40 39 40 40 41 41 41 42 43 43 45 46 47 47 46 47
31 29 32 29 29 30 31 33 35 39 35 35 37 38 41 37 32 33 34 24 31 32 30 31 30 30 31 32 35 37 38 38 40 39 40 42 42 40 38 37 37 37 41 42 42 42 43 45 45 44 44 46 49 50
31 24 26 25 27 33 34 31 32 32 34 37 36 37 35 30 29 29 33 32 32 31 26 25 27 28 29 30 32 35 36 39 41 42 43 43 40 34 34 35 37 40 41 41 42 43 43 43 44 47 48 50 53 55
29 26 28 21 24 29 23 23 26 31 32 34 32 31 32 33 31 29 31 32 28 27 24 24 25 27 29 31 33 35 36 39 41 40 38 40 32 31 33 37 40 42 41 41 41 42 44 46 49 51 54 55 54 52
25 27 28 27 26 24 20 20 24 26 26 28 28 30 28 26 28 31 26 18 18 19 21 23 25 26 28 30 31 32 34 35 34 35 36 33 32 35 38 40 41 40 40 41 43 45 47 49 52 54 52 49 49 52
24 24 22 29 24 24 20 21 29 24 23 24 27 27 29 29 26 23 20 20 21 23 24 24 23 23 23 24 28 29 31 33 34 34 32 33 36 37 38 38 38 40 41 44 46 48 51 52 49 46 47 50 53 56
21 25 25 25 24 20 19 17 19 19 19 21 20 19 20 18 19 20 19 20 19 20 20 21 22 22 23 27 28 30 33 35 36 34 35 36 37 38 38 39 41 44 46 49 50 50 47 45 45 49 52 55 57 60
19 24 26 23 25 26 24 18 18 16 22 21 19 17 17 16 16 19 19 20 21 22 25 26 27 28 30 33 34 36 38 39 37 37 37 37 38 40 42 44 48 50 51 50 48 46 45 48 51 54 56 59 59 60
19 20 20 19 21 22 26 21 20 22 25 24 23 26 25 22 19 19 22 23 25 28 32 34 34 36 38 39 39 37 35 34 36 37 39 40 42 45 48 50 51 50 48 46 45 48 51 53 56 58 59 60 60 58
20 20 22 23 22 22 22 20 23 26 31 31 30 30 30 32 29 28 29 29 31 34 37 38 37 34 32 32 30 31 33 35 38 41 44 46 49 50 50 49 47 46 45 47 49 52 55 57 58 59 60 59 57 54
19 21 21 21 23 23 24 24 24 24 24 26 28 29 29 31 32 33 33 32 32 31 30 30 32 32 33 35 37 39 42 44 45 46 46 47 47 47 46 45 45 47 49 51 54 57 59 60 60 59 56 53 53 55
26 22 21 25 25 25 22 23 23 24 22 21 21 21 23 25 26 26 28 30 33 34 36 37 38 40 41 41 42 43 44 44 44 43 43 44 43 44 45 46 48 51 54 57 58 59 60 58 55 52 51 53 55 55
31 30 28 28 27 27 28 27 27 27 28 27 28 28 29 30 31 32 33 34 35 36 37 38 40 41 42 41 40 40 40 40 40 41 43 44 45 47 49 51 55 57 59 59 59 56 53 51 51 52 52 53 57 61
27 30 31 34 34 33 34 38 38 38 37 36 35 35 34 34 34 33 33 34 35 35 35 35 36 36 36 36 37 38 40 42 43 44 45 47 50 53 56 57 58 57 56 53 51 49 49 50 51 54 57 60 62 65
11 13 16 19 21 26 22 26 26 27 26 27 28 29 29 30 31 31 31 31 31 32 33 34 34 36 38 39 41 42 44 45 47 49 52 55 57 58 57 56 53 50 47 47 48 48 49 53 57 59 62 64 67 71
14 15 15 15 16 15 18 19 21 21 22 23 25 26 27 28 29 30 31 32 33 34 36 37 38 40 42 44 46 48 51 53 56 57 57 57 55 51 48 45 44 45 46 47 48 51 55 58 61 63 65 69 72 74
18 18 18 18 18 19 19 20 22 23 24 25 27 28 30 31 33 35 36 38 40 41 43 45 46 49 51 53 55 56 56 55 54 51 45 43 41 39 39 42 44 46 48 51 54 57 60 62 64 67 69 71 71 72
20 19 20 19 20 22 23 25 26 27 29 30 32 34 35 37 39 41 43 45 46 48 50 52 53 55 56 56 54 51 46 41 38 37 38 37 40 42 44 46 49 51 53 56 58 59 61 64 66 68 70 70 68 65
17 18 20 21 22 22 24 25 27 29 30 32 34 36 38 40 43 44 45 46 47 47 47 46 44 41 38 35 33 31 29 31 35 38 39 41 44 46 49 52 53 55 56 57 58 61 64 67 69 69 68 64 60 59
18 19 20 21 22 24 24 25 27 28 29 28 29 27 27 29 27 26 25 22 21 19 18 17 18 19 22 24 25 28 31 34 38 42 46 48 49 51 53 54 54 55 57 59 62 66 69 69 67 64 61 59 58 55
17 18 18 17 17 17 17 17 16 15 14 13 13 14 16 15 15 15 15 16 18 19 21 22 24 25 27 29 31 34 36 39 43 46 48 50 52 51 53 55 56 58 62 64 68 69 67 64 62 60 59 56 51 48
10 11 12 12 12 13 14 14 14 15 15 15 16 18 20 21 22 22 23 24 26 27 29 31 33 34 36 38 40 42 44 46 47 48 49 51 52 55 56 58 62 64 67 70 69 66 64 62 60 55 50 46 46 46
11 12 13 15 16 17 18 19 20 20 21 23 25 25 25 26 27 29 31 32 34 36 38 39 40 41 42 43 44 44 45 46 48 50 52 54 57 59 63 66 68 69 70 69 66 63 58 54 49 46 45 45 45 44
17 18 19 20 22 22 24 25 26 27 29 30 32 33 34 34 35 36 37 38 39 40 41 42 42 42 43 43 44 45 47 49 52 55 58 61 64 66 68 69 69 67 64 59 55 51 48 47 46 46 46 47 46 45
21 23 24 25 27 28 29 30 31 32 33 34 35 36 37 38 38 39 39 40 40 40 40 40 40 41 42 45 47 50 53 56 59 61 64 66 67 67 64 59 56 53 51 50 49 48 48 48 47 48 48 48 47 47
Wind_Direction
148 135 126 124 124 134 155 167 162 158 163 168 170 176 178 178 172 178 184 191 189 196 198 198 194 198 199 198 194 192 190 196 202 209 216 219 229 237 244 244 242 246 252 257 262 268 273 276 280 282 288 289 290 290
105 111 116 121 129 135 139 152 158 160 160 160 158 162 159 169 173 179 183 186 190 193 197 202 195 202 197 199 199 193 198 201 208 215 219 223 230 237 248 251 254 257 264 269 274 278 282 286 290 290 291 291 292 292
111 115 124 120 133 138 143 151 149 151 158 157 167 175 167 171 169 173 180 180 187 190 196 198 199 201 200 201 200 200 203 208 215 219 227 230 238 247 251 257 260 267 271 276 279 282 285 287 289 291 292 293 294 294
116 119 123 130 139 145 145 139 140 144 146 153 159 162 166 167 165 175 181 184 190 193 200 199 202 204 202 203 203 205 209 215 221 225 230 235 241 247 254 261 264 270 274 279 280 281 286 286 290 291 292 292 292 292
115 119 118 121 127 135 134 135 138 143 149 154 157 160 163 161 167 174 181 190 192 194 195 201 204 205 204 207 209 210 215 221 226 232 238 244 247 252 257 262 267 274 277 278 280 282 283 286 288 288 289 289 290 291
115 116 120 123 128 131 134 138 143 146 150 152 155 159 160 162 169 173 175 181 188 190 197 202 201 204 206 210 215 217 220 226 232 238 242 248 252 257 261 266 270 273 276 279 281 283 284 285 287 287 288 289 290 293
120 124 127 131 133 136 140 144 147 150 152 154 156 159 160 166 175 172 175 178 182 190 192 196 199 203 209 214 218 221 224 229 235 240 246 252 256 260 264 266 271 274 277 279 281 283 284 286 287 287 289 292 294 295
128 133 135 139 142 145 149 151 152 153 157 158 158 162 166 174 175 176 182 185 183 185 188 192 197 202 209 215 221 225 229 234 238 243 248 253 256 260 264 270 274 275 277 279 280 282 283 285 287 291 293 294 295 297
128 129 132 133 140 148 151 155 155 153 160 162 163 166 172 172 175 181 175 164 182 184 189 192 196 203 210 217 223 228 234 238 243 247 251 253 257 263 269 272 274 276 278 278 278 280 283 287 289 291 293 295 296 298
130 130 129 130 135 143 153 153 162 166 166 169 173 171 169 174 177 183 186 179 195 195 195 199 202 206 211 217 224 230 236 240 244 247 251 257 264 268 271 273 274 274 275 278 280 284 286 289 292 294 294 295 297 298
153 153 148 141 136 136 140 152 159 159 166 170 169 171 172 172 180 189 187 185 196 204 209 205 206 213 219 225 230 237 241 246 250 253 257 261 265 269 270 272 273 274 276 280 284 286 289 291 291 292 293 294 296 297
151 144 145 147 151 141 143 151 163 166 161 166 164 168 169 182 186 179 190 205 213 218 216 216 217 220 224 229 234 239 243 247 253 257 259 263 267 269 271 271 272 275 278 281 284 286 287 288 290 292 295 296 298 300
163 152 152 156 153 164 173 165 164 158 166 172 172 177 179 183 187 198 201 216 215 208 211 217 223 228 232 236 240 244 248 251 257 260 263 268 273 272 270 272 274 277 280 282 283 286 289 292 293 293 295 298 302 305
180 180 170 170 165 158 152 163 175 161 167 177 174 175 181 194 198 204 210 207 204 205 208 213 219 226 234 240 245 251 255 259 262 266 271 275 272 272 273 274 275 277 279 283 287 289 290 291 292 295 300 303 304 306
190 188 189 173 173 177 165 165 167 162 163 173 178 180 181 190 196 198 202 204 208 214 215 220 227 236 246 254 256 258 262 265 269 274 274 273 272 274 275 275 276 280 284 286 288 289 290 293 298 301 302 304 306 307
167 180 181 182 188 194 198 211 208 201 184 187 192 196 196 209 220 227 234 234 240 235 232 238 245 253 261 261 261 263 268 271 274 272 271 272 274 276 278 280 283 286 287 288 289 291 293 296 299 302 304 306 307 307
174 171 169 177 186 194 202 203 213 206 202 201 215 231 231 232 240 251 244 243 244 243 243 248 255 261 270 267 266 267 269 269 270 272 274 275 276 278 281 282 284 286 287 288 289 292 296 299 302 304 305 305 305 304
175 180 190 195 197 196 198 211 216 219 221 220 225 233 237 241 243 251 250 247 249 253 254 257 261 261 261 262 262 262 264 267 270 273 275 278 279 281 282 283 284 285 286 288 292 295 298 300 302 302 303 303 302 302
183 187 186 186 192 206 215 218 220 222 223 225 229 233 238 241 243 245 247 248 248 249 250 250 254 257 260 263 267 269 271 273 275 276 277 278 278 279 281 282 283 286 289 292 295 298 299 299 300 300 300 299 300 300
206 210 212 205 194 195 200 208 213 217 216 221 226 231 235 237 239 243 246 249 251 255 257 260 263 266 268 269 270 270 271 272 272 274 275 277 278 280 281 282 285 288 291 293 294 295 296 297 297 297 297 298 299 300
217 222 221 215 218 220 216 219 224 233 236 239 245 248 250 254 258 261 261 261 261 262 263 264 266 268 269 270 270 271 272 274 275 276 277 278 280 281 284 287 289 290 292 293 294 294 294 294 295 296 297 299 301 303
213 220 225 229 226 229 233 236 235 241 243 247 250 254 257 260 262 261 262 261 262 264 265 267 268 269 270 271 272 272 273 274 276 277 279 281 283 284 286 287 288 290 291 291 291 291 292 293 296 299 300 301 303 305
238 243 241 239 235 237 241 243 246 247 251 251 253 254 256 258 260 263 264 265 267 268 269 269 270 271 272 274 274 275 276 277 278 279 280 281 282 284 286 287 288 288 288 289 290 292 293 295 297 299 301 303 304 306
243 242 244 247 252 252 256 256 257 258 259 260 261 261 262 264 265 265 266 268 268 269 270 271 272 272 273 274 275 277 277 278 279 280 282 284 285 286 286 286 286 287 289 291 292 294 296 298 300 301 303 304 305 307
247 243 247 246 248 250 250 252 254 255 258 260 262 263 264 266 266 267 267 268 268 269 271 272 273 273 273 274 274 275 276 278 280 281 282 280 283 286 287 288 289 290 292 293 295 297 298 299 300 302 304 305 306 307
251 251 253 255 256 257 258 260 261 262 264 265 266 267 268 269 270 270 272 272 272 272 272 272 272 273 273 274 275 275 275 274 273 272 278 282 283 282 283 287 289 290 291 294 296 297 300 302 303 305 305 306 307 308
262 259 259 261 264 266 268 270 270 271 272 272 272 272 272 271 271 273 274 274 274 274 274 274 275 275 274 273 271 269 269 272 274 277 280 282 284 287 288 288 288 291 294 296 299 300 302 304 304 305 306 306 307 307
274 274 274 276 277 276 276 275 274 274 274 274 275 274 276 279 283 282 278 275 278 283 285 286 286 286 281 275 275 276 275 277 279 280 282 284 285 286 288 290 292 294 296 298 300 302 304 304 304 304 304 305 306 306
282 284 282 280 281 279 278 276 273 273 274 277 282 285 286 291 295 294 286 285 287 288 289 289 288 285 283 283 283 282 282 282 283 283 285 286 288 289 290 292 294 296 298 300 302 304 303 303 303 303 303 304 303 304
281 275 271 270 271 269 269 272 273 270 270 275 282 289 288 284 281 281 281 282 284 285 287 288 289 289 288 288 287 287 287 287 287 287 288 288 289 290 292 293 295 297 300 302 303 302 301 301 301 301 300 301 302 303
275 273 271 270 271 272 273 274 276 277 277 277 279 282 282 281 282 283 283 284 285 286 286 286 287 288 288 288 288 288 288 287 288 288 289 290 292 293 295 297 298 300 301 301 300 300 300 299 298 298 298 300 303 304
281 279 277 276 275 274 275 275 276 277 279 280 281 282 283 284 284 285 286 286 285 285 286 287 287 287 287 287 287 287 288 289 290 292 293 294 295 296 297 298 299 299 299 299 299 299 298 298 297 297 298 300 301 301
289 287 284 283 282 281 281 280 280 281 282 283 283 284 283 284 284 284 283 283 284 284 285 285 286 287 287 288 289 290 291 292 293 295 295 297 298 299 300 300 300 301 301 301 300 299 298 298 297 297 297 297 298 298
Height
5290 5298 5306 5316 5325 5334 5347 5361 5381 5407 5426 5445 5468 5490 5509 5527 5546 5561 5575 5585 5595 5605 5615 5625 5631 5643 5652 5662 5669 5676 5682 5687 5693 5697 5700 5703 5704 5706 5707 5707 5708 5709 5709 5710 5710 5709 5709 5709 5708 5708 5707 5703 5701 5697
5305 5314 5323 5332 5343 5357 5372 5386 5404 5423 5442 5462 5479 5500 5517 5533 5549 5563 5573 5584 5594 5602 5612 5622 5631 5639 5648 5656 5666 5672 5678 5683 5688 5691 5695 5697 5699 5701 5702 5702 5703 5704 5705 5705 5706 5703 5702 5701 5699 5698 5696 5693 5690 5686
5337 5345 5351 5360 5372 5382 5397 5411 5423 5440 5458 5475 5493 5507 5523 5540 5554 5565 5574 5582 5591 5600 5609 5617 5624 5635 5645 5653 5663 5668 5673 5678 5683 5686 5689 5691 5694 5696 5697 5697 5698 5698 5698 5698 5698 5696 5693 5691 5690 5688 5685 5681 5678 5674
5360 5366 5374 5383 5393 5403 5414 5428 5442 5458 5473 5488 5504 5518 5532 5546 5556 5566 5574 5583 5590 5599 5606 5616 5623 5631 5641 5649 5656 5663 5669 5673 5677 5680 5682 5685 5688 5689 5690 5691 5691 5691 5691 5690 5690 5687 5685 5682 5681 5677 5673 5670 5666 5662
5382 5390 5396 5403 5413 5427 5438 5448 5460 5474 5488 5501 5513 5525 5537 5547 5557 5566 5575 5584 5591 5597 5605 5613 5621 5628 5637 5645 5652 5659 5664 5667 5670 5674 5677 5680 5681 5682 5682 5683 5683 5684 5682 5681 5679 5679 5675 5671 5670 5666 5663 5658 5654 5650
5407 5413 5421 5429 5438 5446 5456 5466 5477 5487 5498 5509 5519 5530 5541 5550 5560 5568 5575 5581 5588 5595 5603 5608 5617 5625 5633 5640 5647 5654 5658 5662 5665 5668 5671 5672 5674 5674 5674 5675 5675 5675 5673 5671 5668 5666 5664 5660 5658 5654 5650 5647 5643 5639
5429 5435 5440 5447 5454 5462 5470 5479 5488 5497 5507 5515 5524 5533 5543 5553 5560 5569 5575 5581 5586 5593 5601 5608 5614 5621 5629 5636 5643 5648 5652 5656 5659 5661 5663 5665 5666 5665 5665 5665 5666 5665 5663 5660 5658 5654 5652 5648 5645 5642 5639 5635 5631 5627
5446 5452 5457 5463 5469 5476 5483 5491 5498 5505 5512 5520 5528 5536 5545 5554 5561 5567 5573 5579 5584 5591 5599 5604 5609 5618 5625 5631 5637 5642 5645 5648 5651 5653 5654 5655 5656 5656 5655 5656 5655 5654 5652 5649 5646 5643 5639 5636 5634 5630 5627 5623 5619 5614
5458 5463 5468 5473 5478 5484 5491 5498 5505 5511 5517 5524 5531 5539 5546 5553 5561 5566 5572 5577 5584 5592 5596 5602 5608 5615 5620 5626 5630 5635 5638 5640 5642 5644 5646 5647 5646 5645 5646 5646 5644 5642 5639 5637 5634 5632 5629 5626 5623 5619 5615 5611 5606 5601
5471 5475 5478 5482 5487 5492 5498 5503 5508 5515 5521 5527 5533 5540 5548 5555 5562 5567 5574 5578 5583 5588 5594 5599 5605 5611 5616 5620 5624 5629 5630 5632 5634 5636 5636 5637 5637 5637 5636 5635 5633 5631 5627 5625 5623 5621 5618 5614 5611 5606 5602 5598 5593 5588
5477 5482 5487 5491 5495 5499 5505 5511 5515 5519 5523 5530 5536 5544 5551 5555 5561 5567 5572 5577 5581 5587 5592 5597 5602 5606 5611 5614 5618 5619 5621 5623 5624 5628 5627 5627 5628 5627 5626 5624 5621 5619 5617 5615 5613 5610 5606 5603 5599 5595 5590 5585 5580 5574
5484 5489 5494 5498 5501 5506 5511 5516 5520 5524 5530 5536 5543 5547 5553 5559 5563 5567 5572 5576 5582 5587 5591 5596 5599 5602 5605 5608 5609 5612 5613 5614 5614 5617 5617 5616 5620 5617 5615 5613 5609 5608 5607 5604 5602 5598 5595 5591 5586 5582 5577 5571 5566 5560
5489 5493 5497 5502 5506 5511 5514 5519 5523 5528 5532 5536 5540 5547 5552 5557 5561 5566 5571 5577 5582 5585 5588 5591 5594 5597 5599 5601 5603 5604 5604 5605 5606 5606 5606 5608 5608 5606 5603 5601 5599 5598 5596 5593 5589 5586 5582 5577 5572 5567 5562 5557 5551 5545
5493 5497 5500 5503 5510 5514 5518 5521 5526 5530 5535 5539 5544 5548 5552 5557 5562 5568 5572 5575 5577 5579 5582 5585 5588 5590 5593 5594 5595 5596 5596 5596 5596 5596 5598 5597 5595 5593 5591 5590 5588 5585 5583 5580 5576 5572 5568 5563 5558 5553 5548 5543 5537 5531
5494 5498 5502 5507 5512 5517 5521 5525 5529 5534 5538 5542 5545 5549 5554 5558 5562 5565 5568 5571 5573 5575 5578 5581 5583 5585 5587 5587 5588 5588 5587 5586 5587 5588 5587 5585 5583 5582 5580 5579 5576 5573 5570 5566 5562 5557 5553 5548 5544 5539 5533 5527 5521 5514
5495 5499 5503 5507 5512 5516 5521 5524 5529 5534 5537 5541 5545 5549 5553 5556 5559 5562 5564 5567 5569 5572 5574 5576 5577 5578 5578 5577 5578 5577 5577 5576 5577 5575 5574 5573 5571 5570 5568 5565 5562 5559 5555 5551 5546 5542 5538 5534 5529 5523 5517 5510 5504 5497
5496 5499 5503 5507 5511 5514 5518 5523 5527 5530 5536 5539 5542 5546 5549 5551 5554 5556 5559 5561 5564 5566 5567 5568 5568 5568 5567 5566 5567 5567 5567 5567 5566 5564 5563 5561 5560 5557 5554 5551 5547 5543 5539 5536 5532 5528 5524 5519 5513 5506 5500 5493 5487 5481
5496 5499 5502 5505 5509 5512 5516 5520 5524 5528 5532 5535 5538 5541 5543 5546 5547 5550 5552 5554 5556 5556 5557 5558 5558 5557 5557 5557 5557 5557 5557 5556 5555 5553 5551 5549 5546 5543 5540 5537 5533 5530 5527 5523 5519 5514 5509 5503 5497 5491 5484 5478 5471 5465
5494 5498 5501 5504 5507 5510 5514 5517 5521 5523 5526 5529 5532 5534 5536 5539 5540 5542 5543 5545 5546 5547 5548 5549 5549 5549 5549 5548 5547 5547 5545 5544 5542 5540 5538 5536 5532 5529 5526 5524 5521 5517 5513 5509 5504 5499 5493 5487 5481 5476 5469 5463 5457 5451
5492 5495 5498 5501 5504 5507 5511 5514 5516 5519 5521 5524 5526 5528 5530 5532 5533 5534 5536 5537 5538 5539 5539 5539 5539 5538 5538 5537 5535 5534 5532 5531 5529 5527 5525 5523 5520 5517 5514 5511 5507 5503 5499 5494 5488 5483 5478 5472 5466 5460 5455 5449 5443 5437
5488 5490 5494 5497 5500 5503 5505 5507 5510 5513 5515 5517 5519 5521 5523 5523 5524 5525 5526 5526 5527 5527 5527 5526 5526 5526 5525 5524 5522 5521 5519 5518 5517 5514 5512 5509 5506 5504 5500 5496 5492 5487 5483 5477 5472 5467 5461 5456 5451 5446 5441 5435 5428 5422
5481 5484 5487 5490 5493 5496 5498 5500 5503 5505 5507 5508 5510 5510 5512 5513 5514 5514 5514 5515 5514 5515 5515 5514 5514 5513 5512 5511 5510 5508 5507 5505 5503 5501 5498 5496 5493 5489 5484 5480 5475 5470 5466 5461 5456 5451 5447 5442 5437 5432 5426 5420 5413 5405
5478 5480 5482 5484 5487 5488 5491 5493 5495 5495 5497 5498 5499 5501 5502 5502 5503 5503 5503 5503 5503 5504 5503 5503 5502 5501 5500 5499 5498 5496 5494 5491 5489 5486 5484 5480 5476 5472 5467 5463 5459 5454 5450 5446 5441 5437 5433 5428 5423 5417 5410 5403 5396 5388
5475 5477 5478 5480 5481 5483 5484 5486 5487 5489 5489 5490 5491 5492 5493 5493 5493 5493 5493 5493 5493 5492 5492 5491 5490 5489 5488 5486 5484 5481 5479 5475 5472 5469 5465 5462 5458 5454 5451 5447 5443 5440 5436 5432 5428 5423 5418 5413 5407 5400 5394 5386 5378 5369
5473 5473 5474 5475 5476 5477 5479 5480 5480 5482 5482 5483 5484 5484 5484 5484 5483 5483 5483 5482 5481 5480 5479 5478 5476 5474 5472 5470 5467 5464 5461 5457 5455 5452 5449 5445 5443 5440 5437 5434 5431 5427 5423 5418 5414 5408 5403 5396 5390 5383 5375 5368 5359 5351
5466 5467 5469 5469 5470 5471 5472 5473 5473 5474 5474 5474 5474 5474 5473 5473 5472 5470 5469 5467 5466 5465 5463 5462 5459 5457 5455 5452 5449 5447 5444 5442 5440 5438 5436 5434 5431 5428 5425 5422 5418 5414 5408 5403 5397 5391 5385 5379 5372 5365 5357 5349 5341 5333
5459 5460 5461 5461 5462 5463 5463 5463 5463 5463 5463 5462 5461 5460 5459 5458 5456 5455 5453 5450 5449 5448 5446 5444 5442 5439 5437 5436 5435 5433 5432 5431 5430 5428 5425 5422 5419 5415 5412 5407 5403 5398 5393 5387 5381 5375 5368 5361 5354 5346 5338 5330 5324 5318
5453 5453 5454 5454 5453 5453 5453 5453 5453 5452 5451 5450 5449 5447 5446 5445 5444 5442 5440 5438 5437 5436 5435 5433 5432 5430 5429 5428 5426 5425 5423 5421 5419 5416 5413 5409 5405 5401 5396 5391 5386 5381 5376 5370 5364 5357 5350 5342 5335 5328 5321 5314 5308 5301
5444 5444 5445 5444 5444 5444 5444 5444 5443 5443 5442 5442 5441 5440 5440 5438 5437 5436 5434 5433 5432 5431 5429 5427 5426 5424 5422 5420 5417 5415 5412 5409 5406 5402 5398 5394 5390 5385 5379 5375 5370 5364 5358 5352 5346 5338 5331 5323 5317 5310 5304 5298 5292 5287
5439 5439 5439 5439 5439 5439 5439 5439 5438 5438 5437 5436 5435 5435 5434 5432 5431 5429 5428 5426 5425 5423 5421 5419 5416 5414 5411 5408 5405 5402 5398 5394 5390 5386 5381 5377 5373 5368 5363 5358 5352 5346 5339 5332 5325 5318 5312 5305 5299 5293 5288 5283 5278 5274
5435 5435 5435 5434 5434 5434 5433 5432 5432 5431 5430 5429 5428 5427 5426 5424 5422 5420 5418 5416 5414 5412 5409 5406 5403 5400 5397 5394 5390 5386 5382 5379 5374 5370 5366 5361 5356 5350 5344 5338 5332 5325 5318 5311 5304 5298 5292 5287 5282 5277 5273 5269 5265 5260
5430 5430 5429 5428 5428 5427 5426 5425 5424 5422 5421 5419 5418 5416 5415 5413 5411 5409 5406 5404 5401 5398 5395 5393 5390 5386 5383 5379 5375 5371 5368 5364 5359 5354 5348 5343 5337 5330 5324 5317 5310 5303 5297 5291 5285 5280 5275 5271 5266 5262 5258 5254 5250 5246
5424 5422 5420 5419 5418 5416 5415 5414 5413 5411 5409 5408 5406 5404 5402 5400 5398 5396 5393 5390 5388 5385 5382 5379 5375 5372 5369 5365 5361 5356 5352 5347 5341 5336 5329 5323 5316 5309 5302 5295 5289 5283 5278 5273 5268 5263 5259 5254 5250 5247 5243 5239 5235 5231